| time (UTC) | temp F | wind direction | speed MPH | gust MPH | rain 1hr in | rain 24hr in | rain mn in | humidity % | barometer mb |
| 20260508120041 | 67 | 323 | 6.0 | 12.0 | 0.00 | 0.03 | 0.00 | 65 | 1014.2 |
| 20260508114546 | 66 | 36 | 5.0 | 13.0 | 0.00 | 0.03 | 0.00 | 64 | 1014.3 |
| 20260508113037 | 66 | 8 | 2.0 | 8.0 | 0.00 | 0.03 | 0.00 | 65 | 1014.2 |
| 20260508111535 | 66 | 334 | 3.0 | 11.0 | 0.00 | 0.03 | 0.00 | 64 | 1014.2 |
| 20260508110039 | 65 | 116 | 0.0 | 4.0 | 0.00 | 0.03 | 0.00 | 67 | 1014.4 |
| 20260508104532 | 64 | 292 | 5.0 | 12.0 | 0.00 | 0.03 | 0.00 | 66 | 1014.4 |
| 20260508103040 | 64 | 296 | 3.0 | 11.0 | 0.00 | 0.03 | 0.00 | 68 | 1014.3 |
| 20260508101538 | 64 | 335 | 4.0 | 10.0 | 0.00 | 0.03 | 0.00 | 68 | 1014.3 |
| 20260508100030 | 64 | 307 | 3.0 | 11.0 | 0.00 | 0.03 | 0.00 | 68 | 1014.4 |
| 20260508094541 | 64 | 7 | 3.0 | 8.0 | 0.00 | 0.03 | 0.00 | 67 | 1014.5 |
| 20260508093029 | 63 | 325 | 3.0 | 7.0 | 0.00 | 0.03 | 0.00 | 63 | 1014.4 |
| 20260508091541 | 64 | 311 | 3.0 | 7.0 | 0.00 | 0.03 | 0.00 | 63 | 1014.1 |
| 20260508090029 | 64 | 2 | 2.0 | 6.0 | 0.00 | 0.03 | 0.00 | 64 | 1014.0 |
| 20260508084522 | 62 | 187 | 1.0 | 6.0 | 0.00 | 0.03 | 0.00 | 78 | 1013.9 |
| 20260508083021 | 60 | 175 | 3.0 | 7.0 | 0.00 | 0.03 | 0.00 | 78 | 1013.5 |
| 20260508081530 | 61 | 227 | 2.0 | 6.0 | 0.00 | 0.03 | 0.00 | 78 | 1013.6 |
| 20260508080019 | 61 | 243 | 1.0 | 5.0 | 0.00 | 0.03 | 0.00 | 78 | 1013.7 |
| 20260508074518 | 60 | 253 | 3.0 | 6.0 | 0.00 | 0.03 | 0.00 | 79 | 1013.6 |
| 20260508073017 | 60 | 254 | 2.0 | 5.0 | 0.00 | 0.03 | 0.00 | 80 | 1013.5 |
| 20260508071522 | 60 | 239 | 3.0 | 7.0 | 0.00 | 0.03 | 0.00 | 80 | 1013.4 |
| 20260508070016 | 60 | 242 | 2.0 | 4.0 | 0.00 | 0.03 | 0.00 | 80 | 1013.1 |
| 20260508064527 | 60 | 227 | 2.0 | 5.0 | 0.00 | 0.03 | 0.00 | 81 | 1013.1 |
| 20260508063014 | 60 | 254 | 2.0 | 4.0 | 0.00 | 0.03 | 0.00 | 82 | 1012.9 |
| 20260508061519 | 60 | 216 | 2.0 | 5.0 | 0.00 | 0.03 | 0.00 | 83 | 1012.9 |
| 20260508060021 | 60 | 255 | 3.0 | 6.0 | 0.00 | 0.03 | 0.00 | 83 | 1012.7 |
| 20260508054513 | 60 | 222 | 2.0 | 6.0 | 0.00 | 0.03 | 0.00 | 84 | 1012.7 |
| 20260508053012 | 60 | 231 | 2.0 | 4.0 | 0.00 | 0.03 | 0.00 | 83 | 1012.5 |
| 20260508051510 | 60 | 205 | 2.0 | 6.0 | 0.00 | 0.03 | 0.00 | 81 | 1012.6 |
| 20260508050010 | 59 | 239 | 2.0 | 5.0 | 0.00 | 0.03 | 0.00 | 80 | 1012.5 |
| 20260508044510 | 59 | 212 | 3.0 | 5.0 | 0.00 | 0.03 | 0.00 | 81 | 1012.3 |
| 20260508043012 | 58 | 172 | 5.0 | 9.0 | 0.00 | 0.03 | 0.00 | 81 | 1012.4 |
| 20260508041506 | 58 | 175 | 6.0 | 8.0 | 0.00 | 0.03 | 0.00 | 82 | 1012.5 |
| 20260508040006 | 58 | 158 | 4.0 | 7.0 | 0.00 | 0.03 | 0.00 | 82 | 1012.6 |
| 20260508034504 | 59 | 177 | 3.0 | 6.0 | 0.00 | 0.03 | 0.00 | 81 | 1012.6 |
| 20260508033122 | 60 | 208 | 3.0 | 6.0 | 0.00 | 0.03 | 0.00 | 80 | 1012.6 |
| 20260508031559 | 59 | 261 | 1.0 | 4.0 | 0.00 | 0.03 | 0.00 | 83 | 1012.6 |
| 20260508030110 | 59 | 175 | 2.0 | 4.0 | 0.00 | 0.03 | 0.00 | 84 | 1012.7 |
| 20260508024620 | 59 | 176 | 3.0 | 4.0 | 0.00 | 0.03 | 0.00 | 84 | 1012.8 |
| 20260508023054 | 59 | 173 | 3.0 | 6.0 | 0.00 | 0.03 | 0.00 | 84 | 1012.9 |
| 20260508021552 | 60 | 178 | 2.0 | 4.0 | 0.00 | 0.03 | 0.00 | 85 | 1013.1 |
| 20260508020104 | 61 | 212 | 0.0 | 2.0 | 0.00 | 0.06 | 0.00 | 85 | 1013.3 |
| 20260508014554 | 64 | 85 | 0.0 | 3.0 | 0.00 | 0.06 | 0.00 | 82 | 1013.4 |
| 20260508013049 | 64 | 85 | 0.0 | 0.0 | 0.00 | 0.06 | 0.00 | 82 | 1013.5 |
| 20260508011545 | 64 | 85 | 0.0 | 0.0 | 0.00 | 0.06 | 0.00 | 82 | 1013.6 |
| 20260508010042 | 64 | 85 | 1.0 | 6.0 | 0.00 | 0.06 | 0.00 | 82 | 1013.7 |
| 20260508004541 | 63 | 73 | 3.0 | 5.0 | 0.00 | 0.06 | 0.00 | 83 | 1013.5 |
| 20260508003043 | 63 | 227 | 0.0 | 3.0 | 0.00 | 0.06 | 0.00 | 82 | 1013.7 |
| 20260508001548 | 64 | 280 | 1.0 | 4.0 | 0.00 | 0.06 | 0.00 | 82 | 1013.9 |
| 20260508000035 | 63 | 287 | 0.0 | 0.0 | 0.00 | 0.06 | 0.00 | 82 | 1014.0 |
| 20260507234536 | 63 | 287 | 0.0 | 0.0 | 0.00 | 0.06 | 0.00 | 82 | 1014.1 |
| 20260507233036 | 63 | 287 | 0.0 | 0.0 | 0.00 | 0.06 | 0.00 | 82 | 1014.1 |
| 20260507231532 | 63 | 286 | 0.0 | 0.0 | 0.00 | 0.06 | 0.00 | 81 | 1014.0 |
| 20260507230035 | 64 | 286 | 0.0 | 0.0 | 0.00 | 0.06 | 0.06 | 80 | 1014.1 |
| 20260507224533 | 64 | 286 | 1.0 | 4.0 | 0.00 | 0.06 | 0.06 | 80 | 1014.1 |
| 20260507223030 | 64 | 96 | 0.0 | 0.0 | 0.00 | 0.06 | 0.06 | 80 | 1014.0 |
| 20260507221530 | 64 | 96 | 0.0 | 0.0 | 0.00 | 0.06 | 0.06 | 79 | 1014.1 |
| 20260507220029 | 64 | 112 | 1.0 | 3.0 | 0.00 | 0.06 | 0.06 | 79 | 1014.0 |
| 20260507214527 | 64 | 202 | 0.0 | 0.0 | 0.00 | 0.06 | 0.06 | 78 | 1013.9 |
| 20260507213034 | 64 | 202 | 0.0 | 0.0 | 0.00 | 0.06 | 0.06 | 78 | 1013.7 |
| 20260507211537 | 64 | 202 | 2.0 | 5.0 | 0.00 | 0.06 | 0.06 | 79 | 1013.8 |
| 20260507210026 | 64 | 185 | 0.0 | 7.0 | 0.00 | 0.06 | 0.06 | 79 | 1013.8 |
| 20260507204525 | 64 | 167 | 0.0 | 0.0 | 0.00 | 0.06 | 0.06 | 79 | 1013.7 |
| 20260507203024 | 64 | 167 | 0.0 | 0.0 | 0.01 | 0.06 | 0.06 | 79 | 1013.5 |
| 20260507201534 | 64 | 167 | 0.0 | 4.0 | 0.01 | 0.06 | 0.06 | 78 | 1013.4 |
| 20260507200028 | 65 | 194 | 3.0 | 5.0 | 0.01 | 0.06 | 0.06 | 78 | 1013.3 |
| 20260507194522 | 65 | 186 | 0.0 | 3.0 | 0.01 | 0.06 | 0.06 | 77 | 1013.0 |
| 20260507193024 | 65 | 90 | 2.0 | 9.0 | 0.00 | 0.06 | 0.06 | 76 | 1013.0 |
| 20260507191524 | 67 | 342 | 2.0 | 6.0 | 0.00 | 0.06 | 0.06 | 75 | 1012.7 |
| 20260507190021 | 67 | 214 | 1.0 | 5.0 | 0.00 | 0.06 | 0.06 | 75 | 1012.5 |
| 20260507184520 | 67 | 205 | 4.0 | 10.0 | 0.00 | 0.06 | 0.06 | 75 | 1012.2 |
| 20260507183022 | 67 | 226 | 5.0 | 10.0 | 0.00 | 0.06 | 0.06 | 75 | 1012.1 |
| 20260507181518 | 67 | 255 | 4.0 | 7.0 | 0.00 | 0.06 | 0.06 | 75 | 1012.1 |
| 20260507180035 | 67 | 215 | 3.0 | 6.0 | 0.00 | 0.06 | 0.06 | 75 | 1012.2 |
| 20260507174521 | 68 | 303 | 2.0 | 8.0 | 0.00 | 0.06 | 0.06 | 75 | 1012.1 |
| 20260507173023 | 69 | 288 | 2.0 | 7.0 | 0.00 | 0.06 | 0.06 | 74 | 1012.1 |
| 20260507171514 | 69 | 23 | 5.0 | 8.0 | 0.00 | 0.06 | 0.06 | 75 | 1012.0 |
| 20260507170030 | 68 | 225 | 8.0 | 12.0 | 0.00 | 0.06 | 0.06 | 76 | 1012.1 |
| 20260507164613 | 67 | 212 | 5.0 | 8.0 | 0.00 | 0.06 | 0.06 | 78 | 1012.5 |
| 20260507163012 | 67 | 345 | 2.0 | 8.0 | 0.00 | 0.06 | 0.06 | 78 | 1012.7 |
| 20260507161511 | 67 | 231 | 0.0 | 0.0 | 0.01 | 0.06 | 0.06 | 80 | 1012.8 |
| 20260507160010 | 66 | 230 | 3.0 | 8.0 | 0.01 | 0.06 | 0.06 | 83 | 1013.0 |
| 20260507154510 | 65 | 257 | 2.0 | 5.0 | 0.01 | 0.06 | 0.06 | 85 | 1013.2 |
| 20260507153009 | 65 | 242 | 2.0 | 9.0 | 0.01 | 0.06 | 0.06 | 87 | 1013.5 |
| 20260507151515 | 65 | 213 | 3.0 | 7.0 | 0.00 | 0.05 | 0.05 | 86 | 1013.5 |
| 20260507150007 | 65 | 215 | 0.0 | 6.0 | 0.00 | 0.05 | 0.05 | 86 | 1013.7 |
| 20260507144507 | 65 | 227 | 4.0 | 9.0 | 0.00 | 0.05 | 0.05 | 87 | 1013.6 |
| 20260507143008 | 66 | 221 | 7.0 | 11.0 | 0.00 | 0.05 | 0.05 | 86 | 1013.7 |
| 20260507141610 | 66 | 252 | 7.0 | 10.0 | 0.01 | 0.05 | 0.05 | 87 | 1013.7 |
| 20260507140007 | 66 | 211 | 0.0 | 5.0 | 0.02 | 0.05 | 0.05 | 86 | 1013.8 |
| 20260507134508 | 66 | 229 | 1.0 | 4.0 | 0.02 | 0.05 | 0.05 | 86 | 1014.0 |
| 20260507133003 | 66 | 217 | 0.0 | 4.0 | 0.02 | 0.05 | 0.05 | 85 | 1014.1 |
| 20260507131503 | 67 | 217 | 5.0 | 9.0 | 0.01 | 0.04 | 0.04 | 84 | 1014.1 |
| 20260507130002 | 67 | 217 | 5.0 | 8.0 | 0.00 | 0.03 | 0.03 | 83 | 1014.0 |
| 20260507124602 | 67 | 227 | 3.0 | 5.0 | 0.00 | 0.03 | 0.03 | 84 | 1014.0 |
| 20260507123001 | 67 | 228 | 3.0 | 6.0 | 0.00 | 0.03 | 0.03 | 84 | 1014.0 |
| 20260507121601 | 67 | 230 | 4.0 | 8.0 | 0.00 | 0.03 | 0.03 | 82 | 1014.2 |